status,avgMeasuredTime,avgSpeed,extID,medianMeasuredTime,TIMESTAMP,vehicleCount,_id,REPORT_ID
OK,298,29,687,298,2014-08-01T07:50:00,0,20746239,210040
OK,298,29,687,298,2014-08-01T07:55:00,0,20746411,210040
OK,298,29,687,298,2014-08-01T08:00:00,0,20746742,210040
OK,298,29,687,298,2014-08-01T08:05:00,0,20747191,210040
OK,298,29,687,298,2014-08-01T08:10:00,0,20747564,210040
OK,298,29,687,298,2014-08-01T08:15:00,0,20748013,210040
OK,298,29,687,298,2014-08-01T08:20:00,0,20748462,210040
OK,298,29,687,298,2014-08-01T08:25:00,0,20748911,210040
OK,384,22,687,384,2014-08-01T08:30:00,3,20749360,210040
OK,384,22,687,384,2014-08-01T08:35:00,3,20749809,210040
OK,655,13,687,655,2014-08-01T08:40:00,0,20750258,210040
OK,655,13,687,655,2014-08-01T08:45:00,0,20750707,210040
OK,655,13,687,655,2014-08-01T08:50:00,0,20751156,210040
OK,272,32,687,272,2014-08-01T08:55:00,1,20751605,210040
OK,272,32,687,272,2014-08-01T09:00:00,0,20752054,210040
OK,290,30,687,290,2014-08-01T09:05:00,2,20752503,210040
OK,290,30,687,290,2014-08-01T09:10:00,2,20752952,210040
OK,468,18,687,468,2014-08-01T09:15:00,1,20753401,210040
OK,468,18,687,468,2014-08-01T09:20:00,1,20753850,210040
OK,468,18,687,468,2014-08-01T09:25:00,0,20754299,210040
OK,468,18,687,468,2014-08-01T09:30:00,0,20754748,210040
OK,468,18,687,468,2014-08-01T09:35:00,0,20755197,210040
OK,468,18,687,468,2014-08-01T09:40:00,0,20755646,210040
OK,468,18,687,468,2014-08-01T09:45:00,0,20756095,210040
OK,468,18,687,468,2014-08-01T09:50:00,0,20756544,210040
OK,468,18,687,468,2014-08-01T09:55:00,0,20756993,210040
OK,327,26,687,327,2014-08-01T10:00:00,1,20757442,210040
OK,356,24,687,356,2014-08-01T10:05:00,1,20757891,210040
OK,356,24,687,356,2014-08-01T10:10:00,0,20758340,210040
OK,356,24,687,356,2014-08-01T10:15:00,0,20758789,210040
OK,356,24,687,356,2014-08-01T10:20:00,0,20759238,210040
OK,356,24,687,356,2014-08-01T10:25:00,0,20759687,210040
OK,292,29,687,292,2014-08-01T10:30:00,1,20760136,210040
OK,292,29,687,292,2014-08-01T10:35:00,1,20760585,210040
OK,292,29,687,292,2014-08-01T10:40:00,0,20761034,210040
OK,292,29,687,292,2014-08-01T10:45:00,0,20761483,210040
OK,292,29,687,292,2014-08-01T10:50:00,0,20761932,210040
OK,292,29,687,292,2014-08-01T10:55:00,0,20762381,210040
OK,371,23,687,371,2014-08-01T11:00:00,3,20762830,210040
OK,371,23,687,371,2014-08-01T11:05:00,3,20763279,210040
OK,371,23,687,371,2014-08-01T11:10:00,0,20763728,210040
OK,371,23,687,371,2014-08-01T11:15:00,0,20764177,210040
OK,371,23,687,371,2014-08-01T11:20:00,0,20764625,210040
OK,371,23,687,371,2014-08-01T11:25:00,0,20765074,210040
OK,371,23,687,371,2014-08-01T11:30:00,0,20765523,210040
OK,371,23,687,371,2014-08-01T11:35:00,0,20765972,210040
OK,371,23,687,371,2014-08-01T11:40:00,0,20766421,210040
OK,371,23,687,371,2014-08-01T11:45:00,0,20766870,210040
OK,371,23,687,371,2014-08-01T11:50:00,0,20767319,210040
OK,253,34,687,253,2014-08-01T11:55:00,1,20767768,210040
OK,253,34,687,253,2014-08-01T12:00:00,1,20768217,210040
OK,253,34,687,253,2014-08-01T12:05:00,0,20768666,210040
OK,253,34,687,253,2014-08-01T12:10:00,0,20769115,210040
OK,253,34,687,253,2014-08-01T12:15:00,0,20769564,210040
OK,278,31,687,278,2014-08-01T12:20:00,1,20770013,210040
OK,278,31,687,278,2014-08-01T12:25:00,1,20770462,210040
OK,362,24,687,362,2014-08-01T12:30:00,1,20770911,210040
OK,362,24,687,362,2014-08-01T12:35:00,1,20771360,210040
OK,362,24,687,362,2014-08-01T12:40:00,0,20771809,210040
OK,362,24,687,362,2014-08-01T12:45:00,0,20772258,210040
OK,313,27,687,313,2014-08-01T12:50:00,1,20772707,210040
OK,313,27,687,313,2014-08-01T12:55:00,1,20773156,210040
OK,276,31,687,276,2014-08-01T13:00:00,1,20773605,210040
OK,276,31,687,276,2014-08-01T13:05:00,0,20774054,210040
OK,276,31,687,276,2014-08-01T13:10:00,0,20774503,210040
OK,276,31,687,276,2014-08-01T13:15:00,0,20774952,210040
OK,276,31,687,276,2014-08-01T13:20:00,0,20775401,210040
OK,276,31,687,276,2014-08-01T13:25:00,0,20775850,210040
OK,276,31,687,276,2014-08-01T13:30:00,0,20776299,210040
OK,276,31,687,276,2014-08-01T13:35:00,0,20776748,210040
OK,276,31,687,276,2014-08-01T13:40:00,0,20777197,210040
OK,276,31,687,276,2014-08-01T13:45:00,0,20777646,210040
OK,276,31,687,276,2014-08-01T13:50:00,0,20778095,210040
OK,276,31,687,276,2014-08-01T13:55:00,0,20778544,210040
OK,276,31,687,276,2014-08-01T14:00:00,0,20778993,210040
OK,273,32,687,273,2014-08-01T14:05:00,1,20779442,210040
OK,273,32,687,273,2014-08-01T14:10:00,1,20779891,210040
OK,273,32,687,273,2014-08-01T14:15:00,0,20780340,210040
OK,273,32,687,273,2014-08-01T14:20:00,0,20780789,210040
OK,273,32,687,273,2014-08-01T14:25:00,0,20781238,210040
OK,281,31,687,281,2014-08-01T14:30:00,1,20781687,210040
OK,281,31,687,281,2014-08-01T14:35:00,1,20782136,210040
OK,241,36,687,241,2014-08-01T14:40:00,1,20782585,210040
OK,241,36,687,241,2014-08-01T14:45:00,1,20783034,210040
OK,241,36,687,241,2014-08-01T14:50:00,0,20783483,210040
OK,360,24,687,360,2014-08-01T14:55:00,1,20783932,210040
OK,361,24,687,361,2014-08-01T15:00:00,1,20784381,210040
OK,360,24,687,360,2014-08-01T15:05:00,0,20784830,210040
OK,360,24,687,360,2014-08-01T15:10:00,0,20785279,210040
OK,360,24,687,360,2014-08-01T15:15:00,0,20785728,210040
OK,360,24,687,360,2014-08-01T15:20:00,0,20786177,210040
OK,286,30,687,286,2014-08-01T15:25:00,1,20786626,210040
OK,286,30,687,286,2014-08-01T15:30:00,0,20787075,210040
OK,286,30,687,286,2014-08-01T15:35:00,0,20787524,210040
OK,286,30,687,286,2014-08-01T15:40:00,0,20787973,210040
OK,286,30,687,286,2014-08-01T15:45:00,0,20788422,210040
OK,286,30,687,286,2014-08-01T15:50:00,0,20788871,210040
OK,286,30,687,286,2014-08-01T15:55:00,0,20789320,210040
OK,249,35,687,249,2014-08-01T16:00:00,1,20789769,210040
OK,249,35,687,249,2014-08-01T16:05:00,1,20790218,210040
OK,249,35,687,249,2014-08-01T16:10:00,0,20790667,210040
OK,249,35,687,249,2014-08-01T16:15:00,0,20791116,210040
OK,249,35,687,249,2014-08-01T16:20:00,0,20791565,210040
OK,249,35,687,249,2014-08-01T16:25:00,0,20792014,210040
OK,249,35,687,249,2014-08-01T16:30:00,0,20792463,210040
OK,280,31,687,280,2014-08-01T16:35:00,1,20792912,210040
OK,295,29,687,295,2014-08-01T16:40:00,1,20793361,210040
OK,216,40,687,216,2014-08-01T16:45:00,2,20793810,210040
OK,218,40,687,218,2014-08-01T16:50:00,3,20794259,210040
OK,430,20,687,430,2014-08-01T16:55:00,1,20794708,210040
OK,430,20,687,430,2014-08-01T17:00:00,0,20795157,210040
OK,430,20,687,430,2014-08-01T17:05:00,0,20795606,210040
OK,430,20,687,430,2014-08-01T17:10:00,0,20796055,210040
OK,430,20,687,430,2014-08-01T17:15:00,0,20796504,210040
OK,430,20,687,430,2014-08-01T17:20:00,0,20796953,210040
OK,430,20,687,430,2014-08-01T17:25:00,0,20797402,210040
OK,430,20,687,430,2014-08-01T17:30:00,0,20797851,210040
OK,430,20,687,430,2014-08-01T17:35:00,0,20798300,210040
OK,430,20,687,430,2014-08-01T17:40:00,0,20798749,210040
OK,430,20,687,430,2014-08-01T17:45:00,0,20799198,210040
OK,430,20,687,430,2014-08-01T17:50:00,0,20799647,210040
OK,430,20,687,430,2014-08-01T17:55:00,0,20800096,210040
OK,239,36,687,239,2014-08-01T18:00:00,1,20800545,210040
OK,232,37,687,232,2014-08-01T18:05:00,2,20800994,210040
OK,232,37,687,232,2014-08-01T18:10:00,0,20801443,210040
OK,232,37,687,232,2014-08-01T18:15:00,0,20801892,210040
OK,232,37,687,232,2014-08-01T18:20:00,0,20802341,210040
OK,232,37,687,232,2014-08-01T18:25:00,1,20802790,210040
OK,232,37,687,232,2014-08-01T18:30:00,1,20803239,210040
OK,232,37,687,232,2014-08-01T18:35:00,0,20803688,210040
OK,232,37,687,232,2014-08-01T18:40:00,0,20804137,210040
OK,232,37,687,232,2014-08-01T18:45:00,0,20804586,210040
OK,232,37,687,232,2014-08-01T18:50:00,0,20805035,210040
OK,232,37,687,232,2014-08-01T18:55:00,0,20805484,210040
OK,232,37,687,232,2014-08-01T19:00:00,0,20805933,210040
OK,232,37,687,232,2014-08-01T19:05:00,0,20806382,210040
OK,232,37,687,232,2014-08-01T19:10:00,0,20806831,210040
OK,232,37,687,232,2014-08-01T19:15:00,0,20807280,210040
OK,232,37,687,232,2014-08-01T19:20:00,0,20807729,210040
OK,232,37,687,232,2014-08-01T19:25:00,0,20808178,210040
OK,232,37,687,232,2014-08-01T19:30:00,0,20808627,210040
OK,232,37,687,232,2014-08-01T19:35:00,0,20809076,210040
OK,232,37,687,232,2014-08-01T19:40:00,0,20809525,210040
OK,232,37,687,232,2014-08-01T19:45:00,0,20809974,210040
OK,232,37,687,232,2014-08-01T19:50:00,0,20810423,210040
OK,232,37,687,232,2014-08-01T19:55:00,0,20810872,210040
OK,232,37,687,232,2014-08-01T20:00:00,0,20811318,210040
OK,232,37,687,232,2014-08-01T20:05:00,0,20811491,210040
OK,232,37,687,232,2014-08-01T20:10:00,0,20811694,210040
OK,232,37,687,232,2014-08-01T20:15:00,0,20811900,210040
OK,232,37,687,232,2014-08-01T20:20:00,0,20812109,210040
OK,232,37,687,232,2014-08-01T20:25:00,0,20812328,210040
OK,232,37,687,232,2014-08-01T20:30:00,0,20812542,210040
OK,232,37,687,232,2014-08-01T20:35:00,0,20812750,210040
OK,232,37,687,232,2014-08-01T20:40:00,0,20812953,210040
OK,232,37,687,232,2014-08-01T20:45:00,0,20813160,210040
OK,232,37,687,232,2014-08-01T20:50:00,0,20813371,210040
OK,232,37,687,232,2014-08-01T20:55:00,0,20813601,210040
OK,232,37,687,232,2014-08-01T21:00:00,0,20813839,210040
OK,232,37,687,232,2014-08-01T21:05:00,0,20814016,210040
OK,232,37,687,232,2014-08-01T21:10:00,0,20814255,210040
OK,247,35,687,247,2014-08-01T21:15:00,1,20814451,210040
OK,247,35,687,247,2014-08-01T21:20:00,1,20814658,210040
OK,247,35,687,247,2014-08-01T21:25:00,0,20814887,210040
OK,247,35,687,247,2014-08-01T21:30:00,0,20815163,210040
OK,247,35,687,247,2014-08-01T21:35:00,0,20815396,210040
OK,247,35,687,247,2014-08-01T21:40:00,0,20815620,210040
OK,247,35,687,247,2014-08-01T21:45:00,0,20815857,210040
OK,247,35,687,247,2014-08-01T21:50:00,0,20816098,210040
OK,247,35,687,247,2014-08-01T21:55:00,0,20816333,210040
OK,247,35,687,247,2014-08-01T22:00:00,0,20816601,210040
OK,247,35,687,247,2014-08-01T22:05:00,0,20817050,210040
OK,247,35,687,247,2014-08-01T22:10:00,0,20817372,210040
OK,247,35,687,247,2014-08-01T22:15:00,0,20817801,210040
OK,247,35,687,247,2014-08-01T22:20:00,0,20818091,210040
OK,247,35,687,247,2014-08-01T22:25:00,0,20818407,210040
OK,247,35,687,247,2014-08-01T22:30:00,0,20818741,210040
OK,247,35,687,247,2014-08-01T22:35:00,0,20819043,210040
OK,247,35,687,247,2014-08-01T22:40:00,0,20819225,210040
OK,222,39,687,222,2014-08-01T22:45:00,1,20819513,210040
OK,222,39,687,222,2014-08-01T22:50:00,1,20819748,210040
OK,222,39,687,222,2014-08-01T22:55:00,0,20820001,210040
OK,222,39,687,222,2014-08-01T23:00:00,0,20820177,210040
OK,222,39,687,222,2014-08-01T23:05:00,0,20820430,210040
OK,222,39,687,222,2014-08-01T23:10:00,0,20820660,210040
OK,222,39,687,222,2014-08-01T23:15:00,0,20820848,210040
OK,261,33,687,261,2014-08-01T23:20:00,1,20821098,210040
OK,261,33,687,261,2014-08-01T23:25:00,0,20821276,210040
OK,261,33,687,261,2014-08-01T23:30:00,0,20821502,210040
OK,261,33,687,261,2014-08-01T23:35:00,0,20821747,210040
OK,261,33,687,261,2014-08-01T23:40:00,0,20821926,210040
OK,261,33,687,261,2014-08-01T23:45:00,0,20822149,210040
OK,261,33,687,261,2014-08-01T23:50:00,0,20822416,210040
OK,261,33,687,261,2014-08-01T23:55:00,0,20822742,210040
OK,261,33,687,261,2014-08-02T00:00:00,0,20823040,210040
OK,261,33,687,261,2014-08-02T00:05:00,0,20823489,210040
OK,261,33,687,261,2014-08-02T00:10:00,0,20823938,210040
OK,261,33,687,261,2014-08-02T00:15:00,0,20824387,210040
OK,261,33,687,261,2014-08-02T00:20:00,0,20824836,210040
OK,261,33,687,261,2014-08-02T00:25:00,0,20825285,210040
OK,261,33,687,261,2014-08-02T00:30:00,0,20825734,210040
OK,261,33,687,261,2014-08-02T00:35:00,0,20826183,210040
OK,261,33,687,261,2014-08-02T00:40:00,0,20826632,210040
OK,261,33,687,261,2014-08-02T00:45:00,0,20827081,210040
OK,261,33,687,261,2014-08-02T00:50:00,0,20827530,210040
OK,261,33,687,261,2014-08-02T00:55:00,0,20827979,210040
OK,261,33,687,261,2014-08-02T01:00:00,0,20828428,210040
OK,261,33,687,261,2014-08-02T01:05:00,0,20828877,210040
OK,261,33,687,261,2014-08-02T01:10:00,0,20829326,210040
OK,261,33,687,261,2014-08-02T01:15:00,0,20829775,210040
OK,261,33,687,261,2014-08-02T01:20:00,0,20830224,210040
OK,261,33,687,261,2014-08-02T01:25:00,0,20830673,210040
OK,261,33,687,261,2014-08-02T01:30:00,0,20831122,210040
OK,261,33,687,261,2014-08-02T01:35:00,0,20831571,210040
OK,261,33,687,261,2014-08-02T01:40:00,0,20832020,210040
OK,261,33,687,261,2014-08-02T01:45:00,0,20832469,210040
OK,261,33,687,261,2014-08-02T01:50:00,0,20832918,210040
OK,261,33,687,261,2014-08-02T01:55:00,0,20833367,210040
OK,261,33,687,261,2014-08-02T02:00:00,0,20833816,210040
OK,261,33,687,261,2014-08-02T02:05:00,0,20834265,210040
OK,261,33,687,261,2014-08-02T02:10:00,0,20834714,210040
OK,261,33,687,261,2014-08-02T02:15:00,0,20835163,210040
OK,261,33,687,261,2014-08-02T02:20:00,0,20835612,210040
OK,261,33,687,261,2014-08-02T02:25:00,0,20836061,210040
OK,261,33,687,261,2014-08-02T02:30:00,0,20836510,210040
OK,261,33,687,261,2014-08-02T02:35:00,0,20836959,210040
OK,261,33,687,261,2014-08-02T02:40:00,0,20837408,210040
OK,261,33,687,261,2014-08-02T02:45:00,0,20837857,210040
OK,261,33,687,261,2014-08-02T02:50:00,0,20838306,210040
OK,261,33,687,261,2014-08-02T02:55:00,0,20838755,210040
OK,261,33,687,261,2014-08-02T03:00:00,0,20839204,210040
OK,261,33,687,261,2014-08-02T03:05:00,0,20839653,210040
OK,261,33,687,261,2014-08-02T03:10:00,0,20840102,210040
OK,261,33,687,261,2014-08-02T03:15:00,0,20840551,210040
OK,261,33,687,261,2014-08-02T03:20:00,0,20841000,210040
OK,261,33,687,261,2014-08-02T03:25:00,0,20841449,210040
OK,261,33,687,261,2014-08-02T03:30:00,0,20841898,210040
OK,261,33,687,261,2014-08-02T03:35:00,0,20842347,210040
OK,261,33,687,261,2014-08-02T03:40:00,0,20842796,210040
OK,261,33,687,261,2014-08-02T03:45:00,0,20843245,210040
OK,261,33,687,261,2014-08-02T03:50:00,0,20843694,210040
OK,261,33,687,261,2014-08-02T03:55:00,0,20844143,210040
OK,261,33,687,261,2014-08-02T04:00:00,0,20844592,210040
OK,261,33,687,261,2014-08-02T04:05:00,0,20844723,210040
OK,261,33,687,261,2014-08-02T04:10:00,0,20845053,210040
OK,261,33,687,261,2014-08-02T04:15:00,0,20845233,210040
OK,261,33,687,261,2014-08-02T04:20:00,0,20845589,210040
OK,261,33,687,261,2014-08-02T04:25:00,0,20845957,210040
OK,261,33,687,261,2014-08-02T04:30:00,0,20846145,210040
OK,261,33,687,261,2014-08-02T04:35:00,0,20846512,210040
OK,261,33,687,261,2014-08-02T04:40:00,0,20846895,210040
OK,261,33,687,261,2014-08-02T04:45:00,0,20847154,210040
OK,261,33,687,261,2014-08-02T04:50:00,0,20847520,210040
OK,261,33,687,261,2014-08-02T04:55:00,0,20847877,210040
OK,261,33,687,261,2014-08-02T05:00:00,0,20848237,210040
OK,261,33,687,261,2014-08-02T05:05:00,0,20848401,210040
OK,261,33,687,261,2014-08-02T05:10:00,0,20848755,210040
OK,261,33,687,261,2014-08-02T05:15:00,0,20848947,210040
OK,261,33,687,261,2014-08-02T05:20:00,0,20849291,210040
OK,280,31,687,280,2014-08-02T05:30:00,0,20849816,210040
OK,280,31,687,280,2014-08-02T05:35:00,0,20850088,210040
OK,280,31,687,280,2014-08-02T05:40:00,0,20850381,210040
OK,280,31,687,280,2014-08-02T05:45:00,0,20850682,210040
OK,280,31,687,280,2014-08-02T05:50:00,0,20851040,210040
OK,280,31,687,280,2014-08-02T05:55:00,0,20851294,210040
OK,280,31,687,280,2014-08-02T06:00:00,0,20851597,210040
OK,280,31,687,280,2014-08-02T06:05:00,0,20852046,210040
OK,280,31,687,280,2014-08-02T06:10:00,0,20852495,210040
OK,280,31,687,280,2014-08-02T06:15:00,0,20852944,210040
OK,280,31,687,280,2014-08-02T06:20:00,0,20853393,210040
OK,280,31,687,280,2014-08-02T06:25:00,0,20853842,210040
OK,280,31,687,280,2014-08-02T06:30:00,0,20854291,210040
OK,280,31,687,280,2014-08-02T06:35:00,0,20854740,210040
OK,280,31,687,280,2014-08-02T06:40:00,0,20855189,210040
OK,280,31,687,280,2014-08-02T06:45:00,0,20855638,210040
OK,280,31,687,280,2014-08-02T06:50:00,0,20856087,210040
OK,280,31,687,280,2014-08-02T06:55:00,0,20856536,210040
OK,280,31,687,280,2014-08-02T07:00:00,0,20856985,210040
OK,280,31,687,280,2014-08-02T07:05:00,0,20857434,210040
OK,280,31,687,280,2014-08-02T07:10:00,0,20857883,210040
OK,280,31,687,280,2014-08-02T07:15:00,0,20858332,210040
OK,280,31,687,280,2014-08-02T07:20:00,0,20858781,210040
OK,280,31,687,280,2014-08-02T07:25:00,0,20859230,210040
OK,280,31,687,280,2014-08-02T07:30:00,0,20859679,210040
OK,280,31,687,280,2014-08-02T07:35:00,0,20860128,210040
OK,280,31,687,280,2014-08-02T07:40:00,0,20860577,210040
OK,280,31,687,280,2014-08-02T07:45:00,0,20861026,210040
OK,280,31,687,280,2014-08-02T07:50:00,0,20861475,210040
OK,280,31,687,280,2014-08-02T07:55:00,0,20861924,210040
OK,303,28,687,303,2014-08-02T08:00:00,1,20862373,210040
OK,303,28,687,303,2014-08-02T08:05:00,0,20862822,210040
OK,303,28,687,303,2014-08-02T08:10:00,0,20863271,210040
OK,303,28,687,303,2014-08-02T08:15:00,0,20863720,210040
OK,303,28,687,303,2014-08-02T08:20:00,0,20864169,210040
OK,368,23,687,368,2014-08-02T08:25:00,1,20864618,210040
OK,368,23,687,368,2014-08-02T08:30:00,0,20865067,210040
OK,368,23,687,368,2014-08-02T08:35:00,0,20865516,210040
OK,368,23,687,368,2014-08-02T08:40:00,0,20865965,210040
OK,368,23,687,368,2014-08-02T08:45:00,0,20866414,210040
OK,368,23,687,368,2014-08-02T08:50:00,0,20866863,210040
OK,368,23,687,368,2014-08-02T08:55:00,0,20867312,210040
OK,368,23,687,368,2014-08-02T09:00:00,0,20867761,210040
OK,264,33,687,264,2014-08-02T09:05:00,1,20868210,210040
OK,264,33,687,264,2014-08-02T09:10:00,1,20868659,210040
OK,264,33,687,264,2014-08-02T09:15:00,0,20869108,210040
OK,264,33,687,264,2014-08-02T09:20:00,0,20869557,210040
OK,278,31,687,278,2014-08-02T09:25:00,1,20870006,210040
OK,278,31,687,278,2014-08-02T09:30:00,0,20870455,210040
OK,278,31,687,278,2014-08-02T09:35:00,0,20870904,210040
OK,278,31,687,278,2014-08-02T09:40:00,0,20871353,210040
OK,278,31,687,278,2014-08-02T09:45:00,0,20871802,210040
OK,219,39,687,219,2014-08-02T09:50:00,1,20872251,210040
OK,219,39,687,219,2014-08-02T09:55:00,1,20872700,210040
OK,219,39,687,219,2014-08-02T10:00:00,0,20873149,210040
OK,219,39,687,219,2014-08-02T10:05:00,0,20873598,210040
OK,219,39,687,219,2014-08-02T10:10:00,0,20874047,210040
OK,219,39,687,219,2014-08-02T10:15:00,0,20874496,210040
OK,219,39,687,219,2014-08-02T10:20:00,0,20874945,210040
OK,219,39,687,219,2014-08-02T10:25:00,0,20875394,210040
OK,219,39,687,219,2014-08-02T10:30:00,0,20875843,210040
OK,219,39,687,219,2014-08-02T10:35:00,0,20876292,210040
OK,250,35,687,250,2014-08-02T10:40:00,1,20876741,210040
OK,250,35,687,250,2014-08-02T10:45:00,1,20877190,210040
OK,250,35,687,250,2014-08-02T10:50:00,0,20877639,210040
OK,250,35,687,250,2014-08-02T10:55:00,0,20878088,210040
OK,250,35,687,250,2014-08-02T11:00:00,0,20878537,210040
OK,250,35,687,250,2014-08-02T11:05:00,0,20878986,210040
OK,250,35,687,250,2014-08-02T11:10:00,0,20879435,210040
OK,250,35,687,250,2014-08-02T11:15:00,0,20879884,210040
OK,250,35,687,250,2014-08-02T11:20:00,0,20880333,210040
OK,254,34,687,254,2014-08-02T11:25:00,1,20880782,210040
OK,254,34,687,254,2014-08-02T11:30:00,1,20881231,210040
OK,218,40,687,218,2014-08-02T11:35:00,1,20881680,210040
OK,218,40,687,218,2014-08-02T11:40:00,1,20882129,210040
OK,218,40,687,218,2014-08-02T11:45:00,0,20882578,210040
OK,218,40,687,218,2014-08-02T11:50:00,0,20883027,210040
OK,218,40,687,218,2014-08-02T11:55:00,0,20883476,210040
OK,260,33,687,260,2014-08-02T12:00:00,1,20883925,210040
OK,260,33,687,260,2014-08-02T12:05:00,1,20884374,210040
OK,260,33,687,260,2014-08-02T12:10:00,0,20884823,210040
OK,260,33,687,260,2014-08-02T12:15:00,0,20885272,210040
OK,260,33,687,260,2014-08-02T12:20:00,0,20885721,210040
OK,260,33,687,260,2014-08-02T12:25:00,0,20886170,210040
OK,260,33,687,260,2014-08-02T12:30:00,0,20886619,210040
OK,260,33,687,260,2014-08-02T12:35:00,0,20887068,210040
OK,260,33,687,260,2014-08-02T12:40:00,0,20887517,210040
OK,260,33,687,260,2014-08-02T12:45:00,0,20887966,210040
OK,303,28,687,303,2014-08-02T12:50:00,1,20888415,210040
OK,303,28,687,303,2014-08-02T12:55:00,1,20888864,210040
OK,303,28,687,303,2014-08-02T13:00:00,0,20889313,210040
OK,303,28,687,303,2014-08-02T13:05:00,0,20889762,210040
OK,303,28,687,303,2014-08-02T13:10:00,0,20890211,210040
OK,303,28,687,303,2014-08-02T13:15:00,0,20890660,210040
OK,303,28,687,303,2014-08-02T13:20:00,0,20891109,210040
OK,303,28,687,303,2014-08-02T13:25:00,0,20891558,210040
OK,303,28,687,303,2014-08-02T13:30:00,0,20892007,210040
OK,303,28,687,303,2014-08-02T13:35:00,0,20892456,210040
OK,303,28,687,303,2014-08-02T13:40:00,0,20892905,210040
OK,303,28,687,303,2014-08-02T13:45:00,0,20893354,210040
OK,303,28,687,303,2014-08-02T13:50:00,0,20893803,210040
OK,303,28,687,303,2014-08-02T13:55:00,0,20894252,210040
OK,303,28,687,303,2014-08-02T14:00:00,0,20894701,210040
OK,245,35,687,245,2014-08-02T14:05:00,1,20895150,210040
OK,245,35,687,245,2014-08-02T14:10:00,1,20895599,210040
OK,245,35,687,245,2014-08-02T14:15:00,0,20896048,210040
OK,245,35,687,245,2014-08-02T14:20:00,0,20896497,210040
OK,245,35,687,245,2014-08-02T14:25:00,0,20896946,210040
OK,245,35,687,245,2014-08-02T14:30:00,0,20897395,210040
OK,245,35,687,245,2014-08-02T14:35:00,0,20897844,210040
OK,213,41,687,213,2014-08-02T14:40:00,2,20898293,210040
OK,213,41,687,213,2014-08-02T14:45:00,0,20898742,210040
OK,213,41,687,213,2014-08-02T14:50:00,0,20899191,210040
OK,213,41,687,213,2014-08-02T14:55:00,0,20899640,210040
OK,213,41,687,213,2014-08-02T15:00:00,0,20900089,210040
OK,213,41,687,213,2014-08-02T15:05:00,0,20900538,210040
OK,213,41,687,213,2014-08-02T15:10:00,0,20900987,210040
OK,213,41,687,213,2014-08-02T15:15:00,0,20901436,210040
OK,213,41,687,213,2014-08-02T15:20:00,0,20901885,210040
OK,319,27,687,319,2014-08-02T15:25:00,1,20902334,210040
OK,325,26,687,325,2014-08-02T15:30:00,3,20902783,210040
OK,325,26,687,325,2014-08-02T15:35:00,0,20903232,210040
OK,325,26,687,325,2014-08-02T15:40:00,0,20903681,210040
OK,325,26,687,325,2014-08-02T15:45:00,0,20904130,210040
OK,325,26,687,325,2014-08-02T15:50:00,0,20904579,210040
OK,325,26,687,325,2014-08-02T15:55:00,0,20905028,210040
OK,325,26,687,325,2014-08-02T16:00:00,0,20905477,210040
OK,325,26,687,325,2014-08-02T16:05:00,0,20905926,210040
OK,325,26,687,325,2014-08-02T16:10:00,0,20906375,210040
OK,242,36,687,242,2014-08-02T16:15:00,1,20906824,210040
OK,242,36,687,242,2014-08-02T16:20:00,1,20907273,210040
OK,242,36,687,242,2014-08-02T16:25:00,0,20907722,210040
OK,242,36,687,242,2014-08-02T16:30:00,0,20908171,210040
OK,231,37,687,231,2014-08-02T16:35:00,1,20908620,210040
OK,231,37,687,231,2014-08-02T16:40:00,1,20909069,210040
OK,231,37,687,231,2014-08-02T16:45:00,0,20909518,210040
OK,285,30,687,285,2014-08-02T16:50:00,1,20909967,210040
OK,285,30,687,285,2014-08-02T16:55:00,1,20910416,210040
OK,285,30,687,285,2014-08-02T17:00:00,0,20910865,210040
OK,285,30,687,285,2014-08-02T17:05:00,0,20911314,210040
OK,328,26,687,328,2014-08-02T17:10:00,1,20911763,210040
OK,328,26,687,328,2014-08-02T17:15:00,1,20912212,210040
OK,328,26,687,328,2014-08-02T17:20:00,0,20912661,210040
OK,328,26,687,328,2014-08-02T17:25:00,0,20913110,210040
OK,328,26,687,328,2014-08-02T17:30:00,0,20913559,210040
OK,328,26,687,328,2014-08-02T17:35:00,0,20914008,210040
OK,328,26,687,328,2014-08-02T17:40:00,0,20914457,210040
OK,328,26,687,328,2014-08-02T17:45:00,0,20914906,210040
OK,248,35,687,248,2014-08-02T17:50:00,1,20915355,210040
OK,248,35,687,248,2014-08-02T17:55:00,1,20915804,210040
OK,484,18,687,484,2014-08-02T18:00:00,1,20916253,210040
OK,484,18,687,484,2014-08-02T18:05:00,1,20916702,210040
OK,484,18,687,484,2014-08-02T18:10:00,0,20917151,210040
OK,484,18,687,484,2014-08-02T18:15:00,0,20917600,210040
OK,484,18,687,484,2014-08-02T18:20:00,0,20918049,210040
OK,484,18,687,484,2014-08-02T18:25:00,0,20918498,210040
OK,484,18,687,484,2014-08-02T18:30:00,0,20918947,210040
OK,484,18,687,484,2014-08-02T18:35:00,0,20919396,210040
OK,484,18,687,484,2014-08-02T18:40:00,0,20919845,210040
OK,484,18,687,484,2014-08-02T18:45:00,0,20920294,210040